Appleton, WI

4:03 PM CST on December 10, 2019 (GMT -0600)
Outagamie County Regional

Weather History for KATW - October, 2019

Change the Weather History Date:

Wednesday, October 2, 2019

  Actual Average Record
Temperature  
Mean Temperature 52 °F -  
Max Temperature 55 °F 66 °F 83 °F (1971)
Min Temperature 48 °F 45 °F 28 °F (2003)
Degree Days  
Heating Degree Days 14    
Growing Degree Days 2 (Base 50)    
Moisture  
Dew Point 48 °F    
Average Humidity 89    
Maximum Humidity 100    
Minimum Humidity 58    
Precipitation  
Precipitation 0.33 in - - ()
Sea Level Pressure  
Sea Level Pressure 30.00 in    
Wind  
Wind Speed 13 mph ()    
Max Wind Speed 20 mph    
Max Gust Speed 25 mph    
Visibility 9.2 miles    
Events Rain    
Averages and records for this station are not official NWS values.
T = Trace of Precipitation, MM = Missing Value Source: Averaged Metar Reports

Daily Weather History Graph

Daily Weather History Graph

Search for Another Location

Airport or City:

Astronomy

Oct. 02, 2019 Rise Set
Actual Time 6:52 AM CDT 6:33 PM CDT
Civil Twilight 6:23 AM CDT 7:02 PM CDT
Nautical Twilight 5:50 AM CDT 7:35 PM CDT
Astronomical Twilight 5:16 AM CDT 8:09 PM CDT
Moon 11:27 AM CDT (10/2) 9:17 PM CDT (10/2)
Length of Visible Light 12h 38m
Length of Day
11h 40m
Waxing Crescent, 20% of the Moon is Illuminated
Oct 2
Waxing Crescent
Oct 5
First Quarter
Oct 13
Full
Oct 21
Last Quarter
Oct 27
New

Hourly Weather History & Observations

Time (CDT) Temp. Dew Point Humidity Pressure Visibility Wind Dir Wind Speed Gust Speed Precip Events Conditions
12:15 AM 53.6 °F 51.8 °F 94% 29.96 in 10.0 mi NE 12.7 mph 19.6 mph 0.01 in Rain Light Rain
12:35 AM 51.8 °F 51.8 °F 100% 29.95 in 5.0 mi ENE 13.8 mph 23.0 mph 0.06 in Rain Rain
12:55 AM 51.8 °F 51.8 °F 100% 29.95 in 7.0 mi ENE 12.7 mph 24.2 mph 0.11 in Rain Light Rain
1:15 AM 51.8 °F 51.8 °F 100% 29.96 in 4.0 mi ENE 16.1 mph 23.0 mph 0.10 in Rain Heavy Rain
1:35 AM 51.8 °F 51.8 °F 100% 29.96 in 7.0 mi ENE 13.8 mph 19.6 mph 0.15 in Rain Light Rain
1:55 AM 51.8 °F 51.8 °F 100% 29.97 in 10.0 mi ENE 12.7 mph 16.1 mph 0.16 in Rain Light Rain
2:15 AM 51.8 °F 51.8 °F 100% 29.96 in 10.0 mi ENE 12.7 mph 19.6 mph 0.02 in Rain Light Rain
2:35 AM 51.8 °F 51.8 °F 100% 29.95 in 10.0 mi NE 18.4 mph 24.2 mph 0.02 in   Light Drizzle
2:55 AM 51.8 °F 50.0 °F 94% 29.94 in 10.0 mi NE 10.4 mph 20.7 mph 0.03 in Rain Light Rain
3:15 AM 50.0 °F 50.0 °F 100% 29.94 in 10.0 mi NNE 15.0 mph - N/A Rain Light Rain
3:35 AM 50.0 °F 50.0 °F 100% 29.97 in 10.0 mi North 16.1 mph 24.2 mph 0.01 in   Light Drizzle
3:55 AM 50.0 °F 50.0 °F 100% 29.97 in 10.0 mi NNE 15.0 mph 21.9 mph 0.01 in   Overcast
4:15 AM 50.0 °F 48.2 °F 94% 29.96 in 10.0 mi NE 15.0 mph 19.6 mph N/A   Light Drizzle
4:35 AM 50.0 °F 48.2 °F 94% 29.97 in 10.0 mi NE 13.8 mph 19.6 mph N/A   Light Drizzle
4:55 AM 50.0 °F 48.2 °F 94% 29.96 in 10.0 mi NNE 13.8 mph - N/A   Overcast
5:15 AM 50.0 °F 48.2 °F 94% 29.99 in 10.0 mi NNE 12.7 mph 19.6 mph N/A   Overcast
5:20 AM 50.0 °F 48.2 °F 94% 29.99 in 10.0 mi NNE 12.7 mph 19.6 mph N/A   Overcast
5:45 AM 50.0 °F 48.2 °F 94% 29.99 in 10.0 mi NNE 13.8 mph 20.7 mph N/A   Overcast
6:45 AM 50.0 °F 48.2 °F 94% 30.01 in 10.0 mi NNE 17.3 mph - N/A   Overcast
7:45 AM 51.8 °F 48.2 °F 88% 30.02 in 10.0 mi NNE 13.8 mph - N/A   Overcast
8:45 AM 51.8 °F 48.2 °F 88% 30.02 in 10.0 mi NNE 16.1 mph 20.7 mph N/A   Overcast
9:45 AM 51.8 °F 48.2 °F 88% 30.04 in 10.0 mi NNE 15.0 mph 23.0 mph N/A   Overcast
10:45 AM 55.4 °F 44.6 °F 67% 30.04 in 10.0 mi NNE 11.5 mph 19.6 mph N/A   Mostly Cloudy
11:45 AM 55.4 °F 41.0 °F 58% 30.05 in 10.0 mi ENE 15.0 mph 25.3 mph N/A   Mostly Cloudy
12:45 PM 55.4 °F 41.0 °F 58% 30.07 in 10.0 mi NE 16.1 mph - N/A   Overcast
1:45 PM 53.6 °F 41.0 °F 62% 30.07 in 10.0 mi NE 19.6 mph 25.3 mph N/A   Overcast
2:45 PM 51.8 °F 41.0 °F 67% 30.05 in 10.0 mi NE 16.1 mph 24.2 mph N/A   Overcast
3:45 PM 51.8 °F 41.0 °F 67% 30.06 in 10.0 mi ENE 15.0 mph 23.0 mph N/A   Overcast
4:45 PM 51.8 °F 39.2 °F 62% 30.04 in 10.0 mi NE 11.5 mph 23.0 mph N/A   Overcast
5:45 PM 51.8 °F 39.2 °F 62% 30.04 in 10.0 mi ENE 10.4 mph 20.7 mph N/A Rain Light Rain
6:30 PM 50.0 °F 42.8 °F 76% 30.03 in 5.0 mi NE 15.0 mph 21.9 mph N/A Rain Light Rain
6:45 PM 48.2 °F 42.8 °F 82% 30.03 in 5.0 mi NNE 16.1 mph 21.9 mph N/A Rain Light Rain
7:45 PM 48.2 °F 48.2 °F 100% 30.04 in 10.0 mi NE 9.2 mph 18.4 mph N/A Rain Light Rain
8:45 PM 50.0 °F 48.2 °F 94% 30.02 in 10.0 mi ENE 11.5 mph 20.7 mph N/A Rain Light Rain
9:45 PM 50.0 °F 48.2 °F 94% 30.01 in 10.0 mi ENE 16.1 mph 19.6 mph N/A Rain Light Rain
10:45 PM 50.0 °F 50.0 °F 100% 30.00 in 10.0 mi ENE 11.5 mph 17.3 mph N/A Rain Light Rain
10:55 PM 50.0 °F 50.0 °F 100% 29.99 in 7.0 mi East 12.7 mph 18.4 mph 0.02 in   Light Drizzle
11:15 PM 50.0 °F 50.0 °F 100% 29.97 in 7.0 mi East 9.2 mph - N/A Rain Light Rain
11:35 PM 50.0 °F 50.0 °F 100% 29.97 in 10.0 mi East 9.2 mph - N/A   Overcast
11:55 PM 50.0 °F 50.0 °F 100% 29.97 in 10.0 mi East 10.4 mph - N/A   Overcast